Home > Weather > Santa Clara > Past weeks

Flag for USA Past Weather in Santa Clara, California, USA — Yesterday and Last 2 Weeks

Now
64 °F

Clear.


Feels Like: 64 °F
Forecast: 60 / 83 °F
Wind: 6 mph from Northwest

Location: San Jose International Airport

Current Time: Jul 30, 2016 at 12:33:33 AM

Latest Report: Jul 29, 2016 at 11:53 PM


Visibility: 10 mi

Pressure: 29.80 "Hg

Humidity: 81%

Dew Point: 58 °F

Location of Santa ClaraLocation

Past Weather in Santa Clara — Graph

°F

Santa Clara Temperature Yesterday

Maximum temperature yesterday: 84 °F (at 1:53 PM)
Minimum temperature yesterday: 60 °F (at 5:53 AM)
Average temperature yesterday: 71 °F

High & Low Weather Summary for the Past Weeks

 TemperatureHumidityPressure
High94 °F (Jul 26, 2:53 PM)87% (Jul 25, 4:53 AM)30.13 "Hg (Jul 25, 4:53 AM)
Low56 °F (Jul 15, 5:53 AM)20% (Jul 26, 1:53 PM)29.76 "Hg (Jul 29, 6:53 PM)
Average69 °F62%29.95 "Hg
* Reported Jul 14 10:53 PM — Jul 29 10:53 PM, Santa Clara, Weather by CustomWeather, © 2016

Note: Actual official high and low records may vary slightly from our data, if they occured in-between our weather recording intervals... More about our weather records

Advertising

Santa Clara Weather History for the Previous 24 Hours

Scroll right to see more
 ConditionsComfort  
Time TempWeatherWind HumidityBarometerVisibility
10:53 PM
Fri, Jul 29
65 °FPassing clouds.5 mph78%29.80 "Hg10 mi
9:53 PM67 °FPassing clouds.8 mph76%29.81 "Hg10 mi
8:53 PM69 °FScattered clouds.8 mph70%29.79 "Hg10 mi
7:53 PM73 °FScattered clouds.9 mph62%29.77 "Hg10 mi
6:53 PM78 °FBroken clouds.12 mph48%29.76 "Hg10 mi
5:53 PM80 °FBroken clouds.12 mph45%29.77 "Hg10 mi
4:53 PM84 °FBroken clouds.12 mph41%29.77 "Hg10 mi
3:53 PM84 °FScattered clouds.13 mph38%29.78 "Hg10 mi
2:53 PM84 °FScattered clouds.10 mph40%29.79 "Hg10 mi
1:53 PM84 °FScattered clouds.10 mph41%29.81 "Hg10 mi
12:53 PM81 °FScattered clouds.7 mph47%29.83 "Hg10 mi
11:53 AM79 °FPassing clouds.5 mph48%29.84 "Hg10 mi
10:53 AM74 °FPassing clouds.5 mph57%29.85 "Hg10 mi
9:53 AM71 °FScattered clouds.No wind63%29.86 "Hg10 mi
8:53 AM68 °FPassing clouds.3 mph70%29.87 "Hg10 mi
7:53 AM64 °FPassing clouds.3 mph78%29.87 "Hg10 mi
6:53 AM61 °FPassing clouds.No wind87%29.86 "Hg10 mi
5:53 AM60 °FPassing clouds.3 mph86%29.85 "Hg10 mi
4:53 AM61 °FClear.6 mph87%29.84 "Hg10 mi
3:53 AM62 °FClear.5 mph83%29.85 "Hg10 mi
2:53 AM62 °FClear.5 mph83%29.84 "Hg10 mi
1:53 AM63 °FClear.6 mph81%29.85 "Hg10 mi
12:53 AM64 °FClear.6 mph78%29.85 "Hg10 mi
Weather by CustomWeather, © 2016

See weather overviewHow to use our weather pages